Tracking 20083 objects as of 9-Dec-2019
HD Live streaming from Space Station
objects crossing your sky now

BREEZE-M R/B

Track BREEZE-M R/B now!


NORAD ID: 42750
Int'l Code: 2017-032B
Perigee: 1,770.3 km
Apogee: 34,491.8 km
Inclination: 31.0 °
Period: 636.2 minutes
Semi major axis: 24502 km
RCS: Unknown
Launch date: June 8, 2017
Source: Commonwealth of Independent States (former USSR) (CIS)
Launch site: TYURATAM MISSILE AND SPACE COMPLEX (TTMTR)

Note: This is a ROCKET BODY
aabbcc
Your satellite tracking list
Your tracking list is empty




NASA's NSSDC Master Catalog

Two Line Element Set (TLE):
1 42750U 17032B   19341.57982335 -.00000169  00000-0  00000+0 0  9997
2 42750  31.0327  89.1143 6677306   5.3418 359.0951  2.26359645 20699
Source of the keplerian elements: AFSPC